Regional Weather Roundup
Issued by NWS Wakefield, VA

Home | Current Version | Previous Version | Graphics & Text | Print | Product List | Glossary On
Versions: 1 2 3 4 5 6 7 8 9 10 11 12 13 14 15 16 17 18 19 20 21 22 23 24 25 26 27 28 29 30 31 32 33 34 35 36 37 38 39 40 41 42 43 44 45 46 47 48 49 50
000
ASUS41 KAKQ 050915
RWRAKQ

REGIONAL WEATHER ROUNDUP
NATIONAL WEATHER SERVICE WAKEFIELD VA
500 AM EDT SUN JUL 05 2015

Note: "fair" indicates few or no clouds below 12,000 feet with no
significant weather and/or obstructions to visibility. * = Denotes
station may not report precipitation (e.g., rain,snow,etc.),
thunder or fog.

VAZ042-051-052>054-056-051000-
NORTHERN VIRGINIA

CITY           SKY/WX    TMP DP  RH WIND       PRES   REMARKS
WASH NATIONAL  CLOUDY    72  66  83 NE5       30.07S HAZE
DULLES         MOCLDY    66  64  94 N5        30.08R FOG
FORT BELVOIR   PTCLDY    68  66  94 N1        30.07R FOG
QUANTICO       MOCLDY    71  67  87 N6        30.08R FOG
FREDERICKSBRG* CLOUDY    71  71 100 CALM      30.06S FOG
STAFFORD*      CLOUDY    65  64  97 CALM      30.11R FOG
WARRENTON      MOCLDY    67  67 100 CALM      30.07S FOG
CULPEPER*      FOG       66  66 100 CALM      30.09R VSB 1/4
MANASSAS*        N/A    N/A N/A N/A MISG        N/A
LEESBURG*      FOG       66  66 100 CALM      30.09S VSB 1/4
WINCHESTER     MOCLDY    66  64  94 CALM      30.09R FOG
FRONT ROYAL*   CLOUDY    68  66  94 CALM      30.08S
LURAY*         CLOUDY    68  68 100 CALM      30.10R FOG
$$

VAZ048-049-060>072-079>083-051000-
CENTRAL AND SOUTH CENTRAL VIRGINIA

CITY           SKY/WX    TMP DP  RH WIND       PRES   REMARKS
RICHMOND       FOG       69  68  96 NE3       30.06R VSB 1/4
CHESTERFIELD*  NOT AVBL
PETERSBURG*    PTCLDY    70  70 100 CALM      30.06S
HANOVER        FOG       69  68  96 CALM      30.08R VSB 1/4
TAPPAHANNOCK*  FOG       67  65  92 CALM      30.07R VSB 1
QUINTON*       NOT AVBL
CHARLOTTSVILLE FOG       65  64  97 CALM      30.07S VSB 1/4
GORDONSVILLE*  FOG       64  64 100 CALM      30.07R VSB 1/4
ORANGE*        CLOUDY    68  68 100 CALM      30.09S FOG
LOUISA*        FOG       68  66  94 CALM      30.07R VSB 3/4
BUMPASS*       FAIR      68  67  98 CALM      30.07R
FARMVILLE*     PTCLDY    67  67 100 CALM      30.06R
CREWE*         FAIR      67  66  96 N3        30.06R
FORT PICKETT*  FAIR      70  69  98 N6        30.06R
CHASE CITY*    PTSUNNY   71  71 100 CALM      30.07R
CLARKSVILLE*   CLOUDY    68  68 100 CALM      30.06S
SOUTH HILL*    MOCLDY    69  69  99 CALM      30.12R
LAWRENCEVILLE* NOT AVBL
EMPORIA*         N/A     70  70 100 CALM      30.07R
$$

VAZ088>098-051000-
SOUTHEAST VIRGINIA

CITY           SKY/WX    TMP DP  RH WIND       PRES   REMARKS
NORFOLK        CLOUDY    73  70  90 CALM      30.05R
VIRGINIA BEACH MOCLDY    75  70  84 CALM      30.04R
NORFOLK NAVAL  MOCLDY    72  71  97 CALM      30.06R
WEST POINT*    MOCLDY    69  67  93 CALM      30.07R VSB 1/2
SALUDA*        FAIR      67  67  99 CALM      30.05R
NEWPORT NEWS   CLOUDY    71  70  96 CALM      30.05R
LANGLEY AFB    MOCLDY    72  71  97 SW3       30.04R
FORT EUSTIS    CLOUDY    72 N/A N/A S1        30.04R
WILLIAMSBURG*  CLOUDY    72  72 100 CALM      30.06R
HR EXEC AP*    FAIR      68  66  94 CALM      30.07R
FRANKLIN*      FOG       70  69  97 CALM      30.06R VSB 1
WAKEFIELD      MOCLDY    71  69  93 CALM      30.06R FOG
$$

VAZ020-022-025-037-045-051000-
WEST CENTRAL AND SOUTHWEST VIRGINIA

CITY           SKY/WX    TMP DP  RH WIND       PRES   REMARKS
STAUNTON*      MOCLDY    66  64  91 CALM      30.12S FOG
WAYNESBORO*    FAIR      63  63 100 CALM      30.11S
HOT SPRINGS VA CLOUDY    63  63  99 E3        30.19R
LYNCHBURG      FOG       69  69 100 NE5       30.09R VSB 1
DANVILLE       CLOUDY    72  69  90 CALM      30.08R
SOUTH BOSTON*  CLOUDY    69  67  95 MISG      30.07R
MARTINSVILLE   CLOUDY    70  70 100 CALM      30.10S FOG
ROANOKE        CLOUDY    68  66  93 CALM      30.10S
BLACKSBURG     CLOUDY    65  65 100 CALM      30.16R FOG
DUBLIN*        CLOUDY    65  65 100 CALM      30.15R FOG
MARION*        DRIZZLE   66  64  96 SW3       30.18R
HILLSVILLE*    CLOUDY    64  64  99 CALM      30.15R FOG
RICHLANDS*     FOG       65  65 100 S3        30.15R VSB 3/4
WISE*          DRIZZLE   66  66 100 S5        30.15R
ABINGDON*      RAIN      69  69 100 CALM      30.13R
$$

MDZ021>025-VAZ099-100-051000-
SOUTHERN MARYLAND AND THE DELMARVA PENINSULA

CITY           SKY/WX    TMP DP  RH WIND       PRES   REMARKS
PATUXENT RIVER CLOUDY    70  70 100 NW6       30.05S FOG
BAY BRIDGE APT   N/A     70  68  94 CALM      30.06S
LEONARDTOWN    CLOUDY    70  68  94 CALM      30.07S
DOVER          CLEAR     66  66 100 E2        30.04S
GEORGETOWN     CLOUDY    68  66  93 CALM      30.06R
EASTON         PTCLDY   N/A N/A N/A CALM      30.09S FOG
CAMBRIDGE      MOCLDY    72  68  88 CALM      30.06R
SALISBURY      CLOUDY    70  69  97 N3        30.05R FOG
OCEAN CITY     MOCLDY    69  68  96 CALM      30.05R FOG
WALLOPS ISLAND CLOUDY    70  70 100 N5        30.05R FOG
ACCOMACK*      FOG       68  68 100 CALM      30.04R VSB 3/4
$$

NCZ012>017-030>032-051000-
NORTH CENTRAL AND EASTERN NORTH CAROLINA

CITY           SKY/WX    TMP DP  RH WIND       PRES   REMARKS
ROANOKE RAPIDS PTSUNNY   70  70 100 CALM      30.06R
RALEIGH        MOCLDY    71  68  90 SW3       30.08R
ELIZABETH CITY MOCLDY    73  71  93 SW6       30.05R
AHOSKIE*       PTCLDY   N/A N/A N/A CALM      30.07R
EDENTON*       MOCLDY    74  71  90 S7        30.06R
CURRITUCK*     MOCLDY    73  71  91 SW3       30.06S
KILL DEVIL HLS MOCLDY    77  71  83 W5        30.05R
MANTEO         MOCLDY    76  71  85 W5        30.06R
CAPE HATTERAS  CLOUDY    76  75  97 SW8       30.08R
TARBORO*         N/A     72  69  92 CALM      30.07R
GOLDSBORO      MOCLDY    76  73  89 SW7       30.06R
WASHINGTON     MOCLDY    76  73  90 SW7       30.08R
GREENVILLE     CLOUDY    73  73 100 SW6       30.09R
NEW BERN       MOCLDY    78  72  81 SW7       30.09R
WILMINGTON     MOCLDY    77  65  66 W7        30.09S
$$

VAZ048-051000-
ELSEWHERE

CITY           SKY/WX    TMP DP  RH WIND       PRES   REMARKS
HARRISBURG PA  FOG       64  62  93 CALM      30.08S VSB 1/4
BALTIMORE      PTCLDY    65  64  97 CALM      30.07R FOG
ANNAPOLIS      CLEAR     70  66  87 N6        30.06R
ANDREWS AFB    PTCLDY    64  64 100 N5        30.07R FOG
PHILADELPHIA   PTCLDY    68  58  70 NW5       30.07R
HENDERSON NC   CLOUDY    70  68  92 CALM      30.07R
GREENSBORO     MOCLDY    71  68  90 SW3       30.07S
ROCKY MOUNT    PTCLDY    72  70  93 S5        30.07R
$$

VAZ100-051000-
MARINE

STATION/POSITION TIME  TEMP    WIND        PRES    WAVE   SWELL
                       AIR SEA DIR/SP/G            HT/PER HT/PER
                 (UTC) (F)     (DEG/KT/KT) (MB)    (FT/S) (FT/S)
BRANDYWINE LGT   0800   71 73   40/  5/  7 1017.8R
CAPE MAY NJ      0800   69 76   40/  2/  4 1017.1R
LEWES DE         0800   71 73   30/  4/  4 1017.3R
15NM E FENWICK I 0850   72 73              1017.2R   4/ 8
OCEAN-CITY-INLET 0800   72 73   20/  1/  2 1017.0R
WACHAPREAGUE VA  0800   70 79   CALM  /  1 1016.9S
THOMAS POINT MD  0900   70 76  360/  9/ 10 1018.3R
GOOSES REEF MD   0900   74 78   70/  4/  6 1018.7R
COVE POINT MD    0800   72     100/  4/  5 1018.0R
SOLOMONS ISLAND  0800      79                N/A
BISHOPS HEAD MD  0800   73      30/  4/  7 1017.0R
PINEY POINT MD   0800           20/  5/  6   N/A
CAMBRIDGE MD     0800   71 79   30/  4/  5 1017.2R
LEWISETTA VA     0800   71 79  340/  3/  5 1016.9R
RAPPAHANNOCK LGT 0800          320/  6/  7 1017.3F
STINGRAY PT      0900   74 80  350/  6/  8 1017.5R   0
YORK RVR RNG VA  0800   74     350/  5/  7 1016.5R
YORKTOWN VA      0800   74 80  360/  7/  8 1016.9R
JAMESTOWN VA     0900   72 82  330/  2/  4   N/A
DOMINION TERM VA 0800   76     330/  4/  4 1016.8R
KIPTOPEKE VA     0800      82  330/  7/  8   N/A
CHES BAY BRIDGE  0800   76 77  260/  2/  4 1016.5R
CAPE HENRY VA    0800   74     260/  2/  2   N/A
CHESAPEAKE LGHT  0800   75     290/  3/  3 1017.4F
WILLOUBY STN VA  0800   76      CALM  /  1 1017.8R
CAPE HENRY BUOY  0828      78                N/A     2/ 9
1ST LANDING BUOY 0900      75              1017.3R   2/ 4
CAPE CHARLES BUO 0826      77                N/A     2/ 9   2/ 9
OFFSHORE WE BUOY 0811      77                N/A     3/ 6   3/ 6
64NM E OF VA BCH 0850   76 76  230/  8/  8 1016.9R   5/ 7   5/ 7
DUCK PIER NC     0800   78 72  250/ 14/ 20   N/A
44100 DUCK FRF   0824      78                N/A     2/ 6
44056 DUCK FRF   0811      77                N/A     2/ 6
OREGON INLET NC  0800   79 79  240/ 13/ 17 1017.5R
HATTERAS NC      0800   78 79  220/  7/ 10 1017.6R
DIAMOND SHLS NC  0850   80 81  230/ 19/ 21 1018.2R   5/ 6   2/ 8
CAPE LOOKOUT NC  0900   79     230/ 10/ 14 1018.7R
$$



USA.gov is the U.S. government's official web portal to all federal, state and local government web resources and services.